Flag for India Weather past 2 weeks in Kolkata, West Bengal, India

Now
82 °F

Passing clouds.


Feels Like: 92 °F
Forecast: 80 / 88 °F
Wind: 5 mph from East

Location: Calcutta / Dum Dum

Current Time: Jul 30, 2014 at 4:50:18 AM

Latest Report: Jul 30, 2014 at 4:20 AM


Visibility: 2 mi

Pressure: 29.47 "Hg

Humidity: 89%

Dew point: 79 °F

Location of KolkataLocation

Historic Weather in Kolkata — Graph

°F

Kolkata temperature yesterday

Maximum temperature yesterday: 88 °F (at 9:50 AM)
Minimum temperature yesterday: 81 °F (at 2:20 AM)
Average temperature yesterday: 84 °F

Past Weeks' High & Low Weather Summary

 TemperatureHumidityPressure
High93 °F (Jul 25, 3:20 PM)94% (Jul 15, 3:50 AM)29.65 "Hg (Jul 15, 3:50 AM)
Low79 °F (Jul 22, 2:20 AM)59% (Jul 25, 3:20 PM)29.21 "Hg (Jul 21, 3:20 AM)
Average84 °F87%29.47 "Hg
* Reported Jul 15 3:50 AM — Jul 30 3:50 AM, Kolkata, Weather by CustomWeather, © 2014

Note: Actual official high and low records may vary slightly from our data, if they occured in-between our weather recording intervals... More about our weather records

Advertising

Kolkata weather history for previous 24 hours

 ConditionsComfort  
Time TempWeatherWind HumidityBarometerVisibility
3:50 AM
Jul 30
82 °FPassing clouds.6 mph89%29.47 "Hg2 mi
3:20 AM82 °FPassing clouds.7 mph89%29.45 "Hg2 mi
2:50 AM82 °FPassing clouds.3 mph89%29.47 "Hg2 mi
2:20 AM82 °FPassing clouds.5 mph89%29.47 "Hg2 mi
1:50 AM82 °FPassing clouds.5 mph89%29.47 "Hg2 mi
1:20 AM82 °FPassing clouds.3 mph89%29.47 "Hg2 mi
12:50 AM82 °FPassing clouds.5 mph89%29.50 "Hg2 mi
12:20 AM82 °FPassing clouds.5 mph89%29.50 "Hg2 mi
11:50 PM
Jul 29
82 °FPassing clouds.3 mph89%29.50 "Hg2 mi
11:20 PM82 °FPassing clouds.3 mph89%29.53 "Hg2 mi
10:50 PM82 °FPassing clouds.3 mph89%29.53 "Hg2 mi
10:20 PM82 °FPassing clouds.6 mph89%29.53 "Hg2 mi
9:50 PM82 °FPassing clouds.6 mph89%29.50 "Hg2 mi
9:20 PM82 °FPassing clouds.No wind89%29.50 "Hg2 mi
8:50 PM82 °FPassing clouds.6 mph89%29.50 "Hg2 mi
8:20 PM82 °FPassing clouds.6 mph94%29.47 "Hg2 mi
7:50 PM82 °FPartly cloudy.7 mph94%29.47 "Hg2 mi
7:20 PM82 °FPartly cloudy.7 mph94%29.45 "Hg2 mi
6:50 PM82 °FLight rain. Partly cloudy.7 mph94%29.45 "Hg2 mi
6:20 PM82 °FLight rain. Broken clouds.8 mph94%29.45 "Hg1 mi
5:50 PM82 °FLight rain. Broken clouds.8 mph94%29.42 "Hg1 mi
5:20 PM82 °FLight rain. Broken clouds.8 mph94%29.42 "Hg1 mi
4:50 PM86 °FLight rain. Scattered clouds.8 mph89%29.42 "Hg2 mi
4:20 PM86 °FScattered clouds.8 mph89%29.42 "Hg1 mi
3:50 PM84 °FLight rain. Scattered clouds.10 mph94%29.42 "Hg1 mi
3:20 PM84 °FLight rain. Scattered clouds.8 mph94%29.42 "Hg1 mi
2:20 PM84 °FScattered clouds.7 mph94%29.45 "Hg2 mi
1:50 PM88 °FRain. Broken clouds.9 mph79%29.45 "Hg1 mi
1:20 PM88 °FScattered clouds.6 mph79%29.45 "Hg2 mi
12:50 PM88 °FBroken clouds.6 mph79%29.47 "Hg2 mi
12:20 PM88 °FRain. Broken clouds.9 mph79%29.47 "Hg1 mi
11:50 AM88 °FBroken clouds.8 mph79%29.50 "Hg2 mi
11:20 AM88 °FBroken clouds.8 mph79%29.50 "Hg2 mi
10:50 AM88 °FBroken clouds.7 mph79%29.50 "Hg2 mi
10:20 AM88 °FBroken clouds.7 mph79%29.50 "Hg2 mi
9:50 AM88 °FLight rain. Broken clouds.10 mph79%29.50 "Hg2 mi
9:20 AM86 °FBroken clouds.10 mph84%29.53 "Hg2 mi
8:20 AM84 °FBroken clouds.9 mph89%29.53 "Hg2 mi
7:50 AM82 °FDrizzle. More clouds than sun.7 mph89%29.50 "Hg1 mi
7:20 AM82 °FLight rain. More clouds than sun.7 mph89%29.50 "Hg1 mi
6:50 AM82 °FLight rain. More clouds than sun.7 mph89%29.50 "Hg1 mi
6:20 AM82 °FRain. More clouds than sun.5 mph89%29.50 "Hg1 mi
5:20 AM81 °FLight rain. Partly cloudy.8 mph94%29.45 "Hg2 mi
4:50 AM81 °FLight rain. Partly cloudy.6 mph94%29.45 "Hg2 mi
4:20 AM81 °FPartly cloudy.7 mph94%29.45 "Hg2 mi
Weather by CustomWeather, © 2014

See weather overviewHow to use our weather pages